< < Back
Terminal Aerodrome Forecast


Current Version              Previous Versions:   1  2  3  4  5  6  7  8  9  

Terminal Aerodrome Forecast

255
FTUS44 KMRX 281720
TAFTYS
TAF
KTYS 281720Z 2818/2918 02007KT P6SM BKN250
     FM290100 02003KT P6SM SCT250
     FM290900 00000KT 6SM BR SCT100
     FM291230 00000KT P6SM SCT100
     FM291400 32005KT P6SM SCT250=

Latest METAR

784
SAUS80 KWBC 290000 RRB
MTRTYS
METAR KTYS 282353Z 01004KT 10SM FEW040 SCT250 31/16 A2996 RMK AO2 SLP133
T03060156 10333 20300 55006


USA.gov is the U.S. government's official web portal to all federal, state and local government web resources and services.